User: anonymous   Login
Location: Newark
(40.3417°N, 75.9264°W)
Time: 08:52:02
(UTC+00:00)
Language:

JY1SAT - Orbit

View from above orbital plane
View from above orbital plane
View from above satellite
View from above satellite

Ground track
Ground track

The orbit data is extracted from the following two-line orbital elements,

1 43803U 18099AX  20157.74407087  .00000718  00000-0  69960-4 0  9997
2 43803  97.7036 229.5611 0014081 225.5511 134.4558 14.95498717 82187
Epoch (UTC): 05 June 2020 17:51:27
Eccentricity: 0.0014081
inclination: 97.7036°
perigee height: 571 km
apogee height: 590 km
right ascension of ascending node: 229.5611°
argument of perigee: 225.5511°
revolutions per day: 14.95498717
mean anomaly at epoch: 134.4558°
orbit number at epoch: 8218

The dashed part of the orbit path shows where the satellite is in the earth's shadow,  

DLR